Location: Dead Woman Crossing
(43.5369°N, 106.3228°W)
Time: 05:47:04
(UTC+00:00)

EO-79 - Visible Passes

Search period start: 26 June 2022 00:00
Search period end: 06 July 2022 00:00
Orbit: 587 x 605 km, 98.0° (Epoch: 25 June)

Date Brightness Start Highest point End Pass type
(mag) Time Alt. Az. Time Alt. Az. Time Alt. Az.
26 Jun ? 08:13:45 10° NNE 08:17:34 32° E 08:18:39 28° SE visible
26 Jun ? 09:49:42 10° NNW 09:53:02 23° WNW 09:55:19 15° WSW visible
27 Jun ? 08:23:31 10° NNE 08:27:32 42° E 08:28:40 34° SE visible
27 Jun ? 09:59:54 10° NNW 10:02:52 19° WNW 10:05:21 12° WSW visible
28 Jun ? 08:33:20 10° NNE 08:37:29 54° E 08:38:41 39° SSE visible
28 Jun ? 10:10:14 10° NNW 10:12:41 15° WNW 10:15:06 10° W visible
29 Jun ? 08:43:12 10° NNE 08:47:25 70° ESE 08:48:42 43° S visible
29 Jun ? 10:20:47 10° NW 10:22:28 12° WNW 10:24:10 10° W visible
30 Jun ? 08:53:05 10° NNE 08:57:19 90° ENE 08:58:42 43° SSW visible
01 Jul ? 07:30:17 10° ENE 07:31:09 11° E 07:32:01 10° E visible
01 Jul ? 09:03:00 10° N 09:07:14 71° WNW 09:08:42 39° SSW visible
02 Jul ? 07:39:00 10° ENE 07:41:10 14° E 07:42:02 13° ESE visible
02 Jul ? 09:12:58 10° N 09:17:06 55° WNW 09:18:42 33° SW visible
03 Jul ? 07:48:18 10° NE 07:51:09 17° E 07:52:01 16° ESE visible
03 Jul ? 09:22:57 10° N 09:26:58 43° WNW 09:28:41 28° WSW visible
04 Jul ? 07:57:49 10° NE 08:01:08 22° E 08:02:00 20° ESE visible
04 Jul ? 09:32:59 10° N 09:36:49 34° WNW 09:38:40 23° WSW visible
05 Jul ? 08:07:26 10° NE 08:11:06 27° E 08:11:59 25° ESE visible
05 Jul ? 09:43:03 10° N 09:46:38 27° WNW 09:48:39 19° WSW visible
